Location: Newark
(34.6283°N, 36.0776°E)
Time: 05:55:04
(UTC+00:00)

Courier 1B Rocket - Pass Details

Date: 21 September 2019
Orbit: 920 x 1202 km, 28.2° (Epoch: 16 October)

Event Time Altitude Azimuth Distance (km) Brightness Sun altitude
Rises 17:40:15 0° 267° (W) 3,781 9.1 -26.1°
Reaches altitude 10° 17:43:38 10° 253° (WSW) 2,776 8.0 -26.8°
Maximum altitude 17:48:36 22° 205° (SSW) 1,966 6.6 -27.7°
Enters shadow 17:49:36 21° 192° (SSW) 1,993 6.5 -27.9°
